Temperature
19 19 18 18 18 18 18 18 18 18 18 18 18 19 19 19 19 19 19 19 19 19 19 19 18 18 18 18 18 18 17 17 17 17 17 17 17 17 17 16 16 16 16
19 19 18 18 18 18 18 18 18 18 18 18 18 18 19 19 19 19 19 19 19 19 19 19 19 18 18 18 18 18 18 17 17 17 17 17 17 17 17 17 16 16 16
19 19 19 19 19 18 18 18 18 18 18 18 18 19 19 19 19 19 19 19 19 19 19 19 19 19 18 18 18 18 18 18 17 17 17 17 17 17 17 17 17 17 16
19 19 19 19 18 18 18 18 18 18 18 18 18 18 19 19 19 19 19 19 19 19 19 19 19 19 18 18 18 18 18 18 18 17 17 17 17 17 17 17 17 17 17
19 19 19 19 18 18 18 18 18 18 18 18 18 19 19 19 19 19 19 19 19 19 19 19 19 19 19 18 18 18 18 18 18 18 17 17 17 17 17 17 17 17 17
19 19 19 19 18 18 18 18 18 18 18 18 18 19 19 19 19 19 19 19 19 19 19 19 19 18 18 18 18 18 18 18 18 18 18 18 18 17 17 17 17 17 17
19 19 18 18 18 18 18 18 18 18 18 18 18 18 19 19 19 19 19 19 19 19 19 18 18 18 18 18 18 18 18 18 18 18 18 18 18 17 17 17 17 17 17
19 19 19 18 18 18 18 18 18 18 18 18 18 18 18 19 19 19 19 19 19 19 19 19 18 18 18 18 18 18 18 18 18 18 18 18 18 17 17 17 17 17 17
19 19 19 19 18 18 18 18 18 18 18 18 18 18 18 18 19 19 19 19 19 19 19 19 18 18 18 18 18 18 18 18 18 18 18 18 17 17 17 17 17 17 17
19 19 19 19 19 18 18 18 18 18 18 18 18 19 19 18 18 18 19 19 19 19 19 19 18 18 18 18 18 18 18 18 18 18 18 18 18 17 17 17 17 17 17
19 19 19 19 19 19 18 18 18 18 18 18 18 18 18 19 19 18 18 19 19 19 19 19 19 18 18 18 18 18 18 18 18 18 18 18 18 17 17 17 17 17 17
19 19 19 19 19 19 19 18 18 18 18 18 18 18 18 18 19 19 19 19 19 19 19 19 19 19 18 18 18 18 18 18 18 18 18 18 17 17 17 17 17 17 17
19 19 19 19 19 19 18 18 18 18 18 18 18 18 18 18 18 19 19 18 18 19 19 19 19 18 18 18 18 18 18 18 18 18 18 18 18 17 17 17 17 17 17
19 19 19 19 18 18 18 18 18 18 18 18 18 18 18 18 18 18 18 18 18 18 18 19 19 18 18 18 18 18 18 18 18 18 18 18 17 17 17 17 17 17 17
19 19 19 18 18 18 18 18 18 18 18 18 18 18 18 18 18 18 18 18 18 18 18 18 18 18 18 18 18 18 18 18 18 17 17 17 17 17 17 17 17 17 17
19 18 18 18 18 18 18 18 18 18 18 18 18 18 18 18 18 18 18 18 18 18 18 18 18 18 18 18 18 18 18 18 17 17 17 17 17 17 17 17 17 16 16
18 18 18 18 18 18 18 18 18 18 17 17 17 17 17 17 17 18 18 18 18 18 17 18 18 18 18 18 18 17 17 17 17 17 17 17 17 16 16 16 16 16 16
18 18 18 18 18 18 18 18 18 17 17 17 17 17 17 17 17 17 17 17 17 17 17 17 17 17 17 17 17 17 17 17 17 17 17 17 16 16 16 16 16 16 16
18 18 17 18 18 18 18 17 17 17 17 17 17 17 17 17 17 17 17 17 17 17 17 17 17 17 17 17 16 16 16 16 16 16 16 16 16 16 16 16 15 16 15
17 17 17 17 17 17 17 17 17 17 17 17 16 16 17 17 17 17 17 17 17 16 16 16 16 16 16 16 16 16 16 16 16 16 16 16 16 16 15 15 15 15 15
17 17 17 17 17 17 17 17 16 16 16 16 16 16 16 16 16 16 16 16 16 16 16 16 16 16 16 16 16 16 15 15 15 15 15 16 15 15 15 15 15 15 15
17 17 17 17 16 16 16 16 16 16 16 16 16 16 16 16 16 16 16 16 16 16 16 15 15 15 15 15 15 15 15 15 15 15 15 15 15 15 15 15 15 15 15
16 16 16 16 16 16 16 16 16 16 16 16 16 16 15 16 16 16 16 16 16 15 15 15 15 15 15 15 15 15 15 14 14 15 14 14 14 14 15 15 15 15 14
16 16 16 16 15 15 15 15 16 15 15 15 15 15 15 15 15 15 15 15 15 15 15 15 15 15 15 15 15 14 14 14 14 14 14 14 14 14 14 14 14 14 14
16 15 15 15 15 15 15 15 15 15 15 15 15 15 15 15 15 15 15 15 15 15 14 14 14 14 14 14 14 14 14 14 14 14 14 14 14 14 13 13 14 14 13
15 15 15 15 15 15 15 15 15 15 15 15 15 15 15 15 15 15 15 14 14 14 14 14 14 14 14 14 14 14 13 13 13 13 13 13 13 13 13 13 13 13 13
Wind_Speed
4 4 4 4 5 5 5 3 3 3 3 2 3 2 2 2 2 4 8 13 13 13 11 10 9 9 9 10 10 10 10 11 11 11 11 10 10 11 11 11 11 11 11
4 3 4 3 3 4 5 4 2 2 2 2 2 2 3 3 3 3 7 10 12 13 12 11 10 10 10 10 10 10 10 10 10 11 11 11 11 12 12 12 12 12 12
5 4 4 4 4 5 4 3 2 1 2 3 3 3 3 3 3 4 5 7 10 12 13 12 11 11 10 10 10 10 10 10 11 11 11 11 11 12 12 11 12 12 13
7 5 4 4 5 5 4 3 3 2 2 2 2 2 2 3 4 5 5 6 8 9 12 13 13 12 11 10 10 10 10 11 11 11 11 11 11 11 11 11 11 12 12
8 6 4 4 5 4 3 4 3 2 2 2 2 2 2 3 3 4 5 6 7 8 10 13 15 14 13 12 11 10 10 10 11 11 11 12 12 12 12 12 13 13 13
7 6 4 5 4 4 3 3 2 2 2 2 3 2 2 3 3 4 5 5 6 8 10 11 12 13 14 13 12 12 11 11 11 12 12 12 12 13 13 13 14 14 13
5 4 3 4 4 4 5 4 4 3 3 2 2 2 2 3 4 4 4 3 4 6 8 9 11 11 11 14 13 13 13 12 12 12 12 12 12 12 12 13 14 13 13
5 5 4 4 4 4 4 4 4 3 3 3 2 1 1 2 3 5 4 5 5 4 5 8 9 10 10 10 12 15 14 13 12 12 12 12 12 12 11 12 13 13 13
5 3 3 3 3 4 5 5 5 5 4 3 3 2 2 2 1 2 3 4 4 4 4 4 7 8 10 9 10 13 15 14 13 12 12 12 12 11 12 12 12 13 13
5 5 4 4 4 4 4 5 5 5 5 4 3 3 3 2 2 2 2 3 4 4 4 5 4 6 8 8 10 11 13 14 13 13 12 12 11 12 12 12 12 12 13
4 5 5 4 4 4 4 5 4 5 4 4 4 3 3 3 4 3 3 3 3 4 4 4 4 4 7 8 8 10 13 14 14 13 13 12 12 12 12 12 12 12 12
3 4 4 4 4 4 4 5 5 6 6 5 4 4 3 3 3 3 4 4 4 4 4 3 4 4 6 6 8 10 12 13 14 13 12 12 11 11 11 11 12 12 12
2 3 4 4 4 4 4 4 5 6 5 6 6 5 4 4 4 4 3 3 3 3 3 3 4 3 5 5 6 9 10 12 12 12 12 11 11 11 10 10 11 11 11
3 3 3 3 4 4 4 3 4 5 5 6 7 6 4 5 4 4 3 3 4 4 3 4 2 3 3 4 6 8 7 11 12 12 12 11 11 11 10 10 11 11 11
2 2 2 3 3 3 3 3 3 4 4 5 5 5 5 5 5 4 3 3 4 5 5 4 3 3 2 3 7 7 6 9 12 13 13 13 12 12 12 11 11 11 11
1 1 1 2 2 2 3 3 4 4 4 4 4 4 4 4 4 4 3 3 4 4 4 3 3 2 2 3 5 5 6 9 12 13 14 13 13 13 13 12 12 12 11
1 2 2 2 2 2 3 3 4 4 4 4 4 4 5 4 4 4 3 3 4 3 5 4 2 2 2 3 2 4 7 8 9 13 14 14 13 13 13 12 12 12 11
2 2 2 2 3 3 2 3 4 3 3 4 4 4 5 5 5 4 3 4 4 4 4 5 4 3 4 3 4 5 6 6 6 11 14 15 14 14 13 12 12 11 11
2 3 2 2 3 3 3 3 4 4 4 4 4 4 5 5 5 4 4 4 4 4 3 5 5 4 3 3 4 5 5 3 6 6 10 12 14 14 13 12 12 11 10
3 3 2 3 3 3 3 3 3 4 4 4 4 4 4 5 5 5 5 4 4 3 3 4 5 4 2 2 2 3 4 3 4 4 4 6 9 11 11 11 12 11 11
4 3 3 4 4 4 4 3 3 4 4 4 4 4 4 3 3 4 4 3 3 3 4 4 4 3 2 2 2 3 4 4 4 2 2 3 4 4 6 8 10 11 11
3 3 4 4 4 5 3 3 3 4 3 4 4 4 5 5 4 4 5 4 4 5 4 4 3 3 3 3 3 4 3 3 3 2 2 4 3 3 4 5 9 11 11
3 3 3 3 4 4 3 2 3 4 4 4 5 5 6 4 2 2 3 4 4 5 5 4 4 4 4 3 4 5 4 4 5 4 3 4 3 3 3 4 9 10 11
3 3 4 4 3 4 3 3 4 4 5 5 5 6 5 3 2 1 3 3 4 4 4 4 4 4 4 3 4 5 5 5 4 2 1 3 2 3 3 2 7 10 9
3 4 4 4 3 3 4 4 4 4 4 5 5 5 5 3 2 1 2 3 4 3 2 3 4 4 4 4 3 3 3 3 3 2 1 1 2 3 2 1 3 7 8
4 4 3 3 4 3 4 5 4 4 4 4 4 3 4 3 3 3 3 3 4 4 4 3 3 4 5 5 4 4 3 3 3 2 0 1 2 2 2 1 0 2 4
Wind_Direction
155 149 153 170 187 179 173 197 193 172 173 207 222 194 204 210 206 155 162 169 173 176 178 184 195 203 206 209 211 212 213 215 216 217 218 223 226 228 228 227 224 222 222
150 148 156 161 188 191 185 194 194 175 175 196 206 199 200 202 199 185 165 170 176 181 183 187 195 203 207 211 215 217 220 221 222 223 224 225 227 228 231 230 227 228 227
158 157 164 167 188 198 189 186 201 184 200 210 208 205 190 190 191 198 176 172 178 188 192 193 197 203 209 215 219 223 225 225 224 226 227 225 227 229 231 232 230 231 231
171 174 180 179 189 192 182 177 193 200 216 224 219 229 202 183 195 193 192 189 184 184 194 201 203 206 213 218 221 224 226 227 227 227 228 227 227 230 232 232 232 232 233
178 188 185 179 191 184 183 196 172 192 220 239 238 218 217 212 206 209 199 201 194 186 186 198 205 208 212 217 221 222 225 227 227 227 228 228 229 230 232 232 233 234 235
184 192 190 181 193 186 187 194 186 206 216 232 253 236 229 220 214 215 216 203 199 200 195 190 195 209 215 218 220 222 225 228 228 229 229 230 232 234 234 233 234 235 236
187 191 195 173 189 193 194 192 189 211 221 221 253 270 251 237 218 212 207 209 210 204 194 189 194 199 202 214 220 224 227 229 229 231 232 232 234 236 235 235 235 234 235
191 196 184 195 189 189 187 195 199 214 232 218 212 251 262 276 256 221 205 210 213 206 196 202 205 201 204 196 212 221 226 229 232 232 232 233 235 237 236 237 235 236 237
186 198 187 201 202 206 194 197 207 216 222 234 218 214 218 238 278 258 233 221 213 215 217 203 209 203 210 200 203 212 219 225 228 231 233 235 236 237 238 239 239 238 239
188 196 198 204 207 212 207 211 205 216 216 227 235 230 227 211 221 255 259 236 228 221 225 230 219 201 210 204 202 200 208 216 222 229 233 235 237 237 240 240 241 242 243
191 202 203 200 202 215 220 222 217 220 225 230 234 232 236 229 227 222 248 245 246 232 224 224 220 205 208 207 197 202 205 209 216 225 231 235 237 238 241 243 244 245 246
199 199 203 196 204 217 223 226 223 225 227 236 243 245 237 234 237 230 239 239 238 241 231 229 231 213 206 207 200 199 204 206 211 219 226 230 235 238 239 241 243 245 247
211 204 210 198 210 219 224 225 225 229 233 237 240 246 248 249 246 239 236 246 252 251 239 235 233 212 210 189 186 197 203 202 207 213 219 226 231 234 235 239 242 245 248
219 208 202 196 207 224 232 224 233 229 227 233 242 248 256 259 257 243 234 236 255 255 240 241 235 213 185 173 191 191 197 202 208 214 218 222 226 231 235 240 241 244 247
241 184 191 205 209 219 227 233 239 239 233 231 240 245 248 258 257 253 243 229 232 247 251 240 232 225 190 177 189 193 198 205 209 215 221 224 227 229 233 236 238 241 245
258 213 209 224 226 229 233 236 248 240 235 235 229 232 239 255 258 254 242 239 242 244 253 248 240 232 222 229 212 207 214 217 217 217 222 224 226 229 231 233 236 238 240
252 238 237 239 243 249 253 252 259 254 243 240 243 234 235 242 255 261 252 242 242 242 253 267 261 259 250 239 225 232 235 219 221 221 221 223 225 228 230 232 233 235 238
247 248 245 250 257 256 255 258 264 265 258 252 249 249 251 248 250 260 262 257 250 240 247 263 264 262 253 240 232 241 245 235 229 225 221 222 223 225 228 230 231 232 233
241 252 244 249 260 262 253 252 254 262 261 260 253 247 252 256 257 257 254 259 261 260 245 252 258 251 249 244 246 256 258 246 252 235 223 226 226 226 227 227 228 228 227
232 237 248 250 254 259 255 247 249 258 259 262 260 257 256 255 254 258 256 257 262 267 260 258 260 260 246 241 238 261 270 260 260 263 237 234 229 227 228 225 223 223 224
239 237 245 249 250 249 255 257 253 256 261 265 266 262 262 253 249 253 258 263 262 259 260 260 263 269 265 265 253 262 268 269 265 253 255 257 231 220 223 228 223 220 221
247 240 243 252 256 259 260 264 273 272 271 269 270 267 262 249 238 234 240 244 249 250 253 258 264 264 271 264 258 261 264 272 268 242 254 260 232 224 228 219 214 216 218
245 249 252 255 260 263 257 253 263 268 265 261 260 261 269 262 254 248 239 237 250 256 250 250 262 267 270 272 266 264 259 261 263 255 248 259 244 243 255 233 205 206 213
252 254 255 254 256 264 245 243 251 254 259 262 259 255 251 243 250 280 278 261 257 257 251 248 250 261 273 272 260 256 258 258 262 257 227 255 269 274 281 236 206 200 206
256 252 256 254 255 259 248 246 248 264 260 259 255 250 237 225 202 220 250 265 271 275 266 254 248 242 247 255 264 276 275 269 274 259 213 250 280 296 277 245 222 210 216
268 269 262 261 257 249 240 239 244 267 271 268 248 238 233 199 190 214 231 251 261 269 278 278 263 250 245 243 236 228 243 261 278 274 238 241 278 304 296 286 234 237 226
Height
1538 1540 1541 1542 1544 1545 1547 1548 1549 1550 1551 1552 1554 1555 1556 1558 1559 1560 1561 1561 1562 1562 1563 1563 1563 1564 1564 1565 1566 1566 1567 1567 1568 1569 1569 1570 1570 1571 1571 1572 1572 1573 1574
1538 1539 1541 1542 1544 1546 1547 1548 1549 1550 1551 1552 1553 1554 1556 1557 1558 1559 1560 1560 1561 1561 1562 1562 1563 1563 1563 1564 1565 1565 1565 1566 1566 1567 1567 1568 1568 1569 1569 1569 1570 1571 1571
1538 1539 1540 1542 1544 1545 1547 1548 1549 1550 1551 1551 1552 1553 1555 1556 1557 1558 1559 1559 1559 1560 1560 1561 1562 1562 1562 1563 1563 1563 1564 1564 1565 1565 1565 1566 1566 1566 1567 1567 1568 1568 1569
1537 1539 1540 1541 1543 1545 1546 1547 1548 1549 1550 1551 1552 1553 1554 1555 1555 1556 1557 1558 1558 1559 1559 1560 1560 1561 1561 1561 1561 1562 1562 1562 1562 1563 1563 1564 1564 1564 1564 1565 1565 1566 1566
1536 1538 1539 1540 1542 1544 1545 1547 1548 1549 1549 1550 1551 1552 1552 1553 1554 1555 1556 1556 1557 1557 1558 1558 1559 1559 1559 1559 1559 1560 1560 1560 1560 1561 1561 1561 1561 1562 1562 1562 1563 1563 1564
1535 1537 1538 1539 1541 1543 1544 1545 1547 1548 1548 1549 1550 1551 1551 1552 1552 1553 1554 1555 1556 1556 1556 1557 1557 1557 1557 1557 1557 1558 1558 1558 1558 1558 1558 1558 1559 1559 1559 1560 1560 1560 1561
1534 1535 1537 1538 1540 1541 1542 1544 1545 1546 1547 1548 1549 1549 1549 1550 1551 1551 1552 1553 1554 1554 1555 1555 1555 1555 1555 1555 1555 1555 1555 1555 1555 1555 1555 1556 1556 1556 1557 1557 1557 1557 1558
1533 1534 1535 1537 1538 1540 1541 1542 1543 1544 1546 1547 1548 1548 1548 1549 1549 1549 1550 1551 1551 1552 1552 1553 1553 1552 1552 1552 1552 1552 1553 1553 1553 1553 1553 1553 1553 1553 1554 1554 1554 1554 1555
1532 1533 1534 1536 1537 1538 1539 1541 1542 1542 1543 1545 1546 1547 1547 1547 1547 1547 1548 1548 1549 1550 1550 1550 1550 1550 1550 1549 1549 1550 1550 1550 1550 1550 1550 1550 1550 1550 1551 1551 1551 1551 1551
1530 1532 1533 1534 1535 1536 1538 1539 1540 1541 1541 1542 1544 1545 1545 1545 1545 1545 1546 1546 1547 1547 1547 1547 1547 1547 1547 1546 1546 1546 1547 1547 1547 1547 1547 1547 1547 1547 1547 1547 1547 1548 1547
1529 1530 1531 1532 1533 1534 1535 1536 1537 1538 1539 1540 1541 1541 1542 1542 1543 1543 1543 1543 1544 1544 1544 1544 1545 1544 1544 1544 1543 1543 1543 1544 1544 1543 1543 1544 1544 1544 1544 1544 1544 1544 1543
1527 1528 1529 1530 1531 1532 1533 1533 1534 1535 1536 1537 1538 1538 1539 1540 1540 1540 1540 1540 1540 1541 1541 1541 1541 1541 1541 1541 1540 1540 1540 1540 1540 1540 1540 1540 1540 1540 1540 1540 1539 1539 1539
1526 1526 1527 1528 1529 1529 1530 1531 1531 1532 1533 1534 1534 1535 1536 1537 1537 1537 1538 1537 1537 1537 1537 1538 1537 1537 1537 1537 1537 1537 1536 1536 1536 1536 1536 1536 1536 1536 1536 1535 1535 1535 1535
1524 1524 1525 1526 1527 1527 1528 1528 1528 1529 1530 1530 1531 1532 1532 1533 1533 1534 1534 1535 1534 1534 1534 1534 1534 1534 1533 1533 1533 1533 1532 1532 1532 1532 1532 1532 1531 1531 1531 1531 1530 1530 1530
1522 1522 1523 1524 1524 1525 1525 1526 1526 1526 1526 1527 1527 1528 1529 1529 1530 1530 1531 1531 1532 1531 1530 1530 1530 1530 1530 1529 1529 1529 1529 1528 1528 1528 1528 1527 1527 1527 1526 1526 1526 1525 1525
1519 1520 1520 1521 1521 1522 1522 1523 1523 1523 1524 1524 1524 1524 1524 1525 1525 1526 1527 1527 1528 1528 1526 1526 1526 1526 1526 1526 1524 1524 1524 1524 1523 1523 1523 1523 1522 1522 1521 1521 1521 1521 1520
1516 1517 1517 1518 1519 1519 1519 1520 1520 1520 1520 1520 1521 1521 1521 1522 1522 1522 1522 1523 1523 1524 1523 1522 1522 1522 1522 1522 1521 1520 1520 1519 1519 1519 1518 1518 1518 1518 1517 1516 1516 1516 1516
1514 1514 1514 1515 1516 1516 1516 1516 1517 1517 1517 1517 1517 1518 1518 1518 1518 1518 1518 1518 1519 1519 1519 1518 1517 1518 1518 1517 1517 1516 1516 1515 1515 1514 1514 1513 1513 1513 1512 1512 1511 1511 1511
1511 1512 1512 1512 1512 1513 1513 1513 1514 1513 1513 1514 1514 1514 1514 1514 1514 1514 1514 1515 1515 1515 1515 1515 1513 1514 1513 1513 1512 1512 1511 1511 1510 1510 1509 1509 1508 1508 1507 1507 1507 1506 1506
1508 1508 1508 1509 1509 1509 1509 1510 1510 1510 1510 1510 1510 1510 1510 1510 1510 1510 1511 1511 1511 1511 1511 1510 1510 1509 1509 1508 1508 1507 1506 1506 1505 1505 1504 1504 1503 1503 1502 1502 1502 1502 1501
1505 1505 1505 1505 1506 1506 1506 1506 1506 1506 1506 1506 1506 1506 1506 1506 1506 1506 1507 1507 1507 1507 1507 1506 1505 1505 1504 1504 1503 1503 1502 1501 1501 1500 1499 1499 1499 1498 1498 1497 1497 1497 1496
1502 1502 1502 1502 1502 1502 1502 1502 1502 1502 1502 1501 1501 1501 1502 1502 1501 1502 1502 1502 1503 1503 1502 1502 1501 1500 1500 1500 1499 1499 1498 1497 1496 1496 1495 1495 1495 1494 1493 1493 1493 1493 1492
1499 1499 1499 1499 1498 1498 1498 1498 1498 1498 1497 1497 1497 1497 1497 1498 1497 1498 1498 1498 1498 1498 1499 1498 1497 1496 1496 1495 1495 1495 1494 1493 1492 1492 1492 1491 1491 1490 1490 1489 1489 1488 1488
1496 1495 1496 1495 1495 1495 1495 1495 1494 1494 1493 1493 1493 1493 1493 1493 1493 1493 1493 1493 1493 1493 1494 1494 1493 1492 1492 1491 1491 1491 1490 1489 1489 1488 1488 1488 1487 1486 1486 1485 1485 1484 1484
1493 1493 1492 1492 1491 1491 1491 1491 1491 1490 1489 1489 1489 1489 1489 1489 1489 1489 1489 1489 1489 1489 1489 1489 1489 1488 1488 1487 1487 1487 1486 1485 1485 1484 1484 1484 1483 1483 1482 1481 1481 1481 1480
1490 1490 1489 1489 1488 1488 1488 1487 1487 1486 1485 1485 1485 1485 1485 1485 1485 1485 1485 1484 1484 1484 1484 1484 1484 1484 1483 1483 1483 1483 1482 1482 1481 1481 1481 1481 1480 1479 1478 1478 1477 1477 1476